Location: Kitchener-Waterloo
(43.4500°N, 80.5000°W)
Time: 17:04:37
(UTC-05:00)

Daily predictions for brighter satellites

Satellite Brightness Start Highest point End
(mag) Time Altitude Azimuth Time Altitude Azimuth Time Altitude Azimuth
Cosmos 2333 Rocket 3.2 17:39:25 10° SSE 17:44:02 27° ESE 17:48:40 10° NE
Cosmos 1763 Rocket 3.6 17:41:53 10° S 17:46:59 57° ESE 17:52:04 10° NNE
CORIOLIS 4.1 17:43:42 10° SSE 17:49:01 75° ENE 17:54:24 10° N
BREEZE-M DEB (TANK) 4.2 17:50:39 10° W 17:53:12 37° SSW 17:59:03 10° SE
Tsikada Rocket 4.1 17:47:32 10° S 17:53:54 82° E 18:00:21 10° N
Cosmos 2219 Rocket 2.6 17:52:11 10° S 17:57:30 44° ESE 18:02:49 10° NE
Cosmos 2322 Rocket 4.2 17:54:04 10° W 17:58:28 22° NW 18:02:52 10° N
Cosmos 1743 Rocket 3.7 17:54:11 10° S 17:58:33 55° E 18:02:56 10° NNE
Cosmos 2278 Rocket 2.7 17:56:16 10° NNW 18:01:33 38° ENE 18:06:48 10° SE
Cosmos 1328 Rocket 3.5 17:58:25 10° N 18:02:52 71° E 18:07:17 10° SSE
Cosmos 540 Rocket 4.3 18:03:20 10° SSE 18:07:49 31° E 18:12:20 10° NE
Cosmos 1340 Rocket 4.4 18:05:44 10° SE 18:08:10 16° E 18:09:40 13° ENE
USA 215 3.3 18:02:23 10° ESE 18:08:51 63° NNE 18:15:19 10° NW
Cosmos 1908 3.7 18:05:23 10° NNW 18:09:14 66° W 18:13:06 10° S
Cosmos 1515 Rocket 3.6 18:05:19 10° N 18:09:46 63° E 18:14:10 10° SSE
Cosmos 2151 3.7 18:06:35 10° SSE 18:10:19 32° E 18:14:03 10° NNE
Cosmos 332 Rocket 3.8 18:06:23 10° S 18:11:09 66° ESE 18:16:00 10° NNE
MONITOR-E 4.1 18:09:12 10° SSE 18:12:21 74° ENE 18:15:32 10° N
Cosmos 1844 3.7 18:06:58 10° NNW 18:12:45 75° ENE 18:18:32 10° SSE
SKYMED 2 3.8 18:08:59 10° NNE 18:13:12 49° E 18:17:24 10° S
SL-14 R/B 3.9 18:13:22 10° SSE 18:16:56 35° E 18:20:34 10° NNE
Thor Agena Rocket 3.8 18:12:55 10° NNE 18:18:12 76° WNW 18:23:22 10° SSW
Cosmos 1674 3.3 18:14:58 10° SSW 18:18:44 59° W 18:22:34 10° N
SPOT 3 Rocket 4.3 18:13:56 10° S 18:18:59 58° WSW 18:24:06 10° NNW
MSX 4.2 18:13:36 10° S 18:19:18 72° WSW 18:25:02 10° NNW
Cosmos 1151 Rocket 3.1 18:15:14 10° N 18:19:25 53° ENE 18:23:36 10° SSE
Cosmos 1634 Rocket 3.9 18:13:26 10° N 18:19:39 72° E 18:25:48 10° SSE
Cosmos 1484 Rocket 2.8 18:18:27 10° SSE 18:22:22 90° NE 18:26:22 10° NNW
Cosmos 1125 Rocket 3.5 18:18:21 10° NNW 18:23:32 61° ENE 18:28:40 10° SSE
COSMOS 2428 3.1 18:18:52 10° SW 18:24:32 66° WNW 18:30:15 10° NNE
NOAA 12 4.3 18:20:27 10° SE 18:25:24 45° ENE 18:30:23 10° N
Cosmos 1500 Rocket 3.4 18:21:12 10° S 18:25:31 77° E 18:29:53 10° N
Molniya-1 4.3 18:22:57 10° SW 18:25:45 71° NW 18:30:19 12° NE
Cosmos 2237 Rocket 2.5 18:22:45 10° S 18:28:06 47° ESE 18:33:01 12° NE
BREEZE-M DEB (TANK) 4.2 18:21:41 10° WNW 18:29:40 45° SW 18:32:48 10° SSE
ALOS 3.3 18:28:26 10° ESE 18:32:09 24° ENE 18:35:51 10° NNE
SL-16 R/B 3.3 18:28:42 10° SSE 18:32:57 22° E 18:34:21 20° E
Cosmos 44 3.7 18:28:22 10° S 18:33:25 47° ESE 18:36:41 20° NE
Cosmos 1300 2.6 18:30:06 10° N 18:33:57 71° E 18:37:46 10° SSE
IDEFIX/ARIANE 42P 4.5 18:30:36 10° SSW 18:35:16 33° W 18:39:59 10° NNW
Cosmos 1726 2.0 18:32:17 10° N 18:36:03 78° E 18:39:49 10° SSE
Spot 2 Rocket 4.4 18:31:54 10° ESE 18:36:03 26° ENE 18:40:13 10° N
Cosmos 2297 4.2 18:35:15 10° N 18:40:32 37° ENE 18:44:55 14° ESE
Cosmos 841 Rocket 4.1 18:35:35 10° SSW 18:40:47 59° WNW 18:46:01 10° NNE
Cosmos 371 Rocket 3.3 18:36:45 10° SSW 18:41:34 86° WNW 18:46:24 10° NNE
Lacrosse 5 rocket 1.5 18:38:44 10° NW 18:42:21 43° NE 18:43:38 31° E
BREEZE-M DEB (TANK) 2.8 18:40:41 10° SSW 18:42:53 32° SE 18:43:04 31° SE
NOSS 0 Rocket 3.9 18:36:44 10° SSW 18:42:55 74° ESE 18:48:47 12° NNE
CZ-4 R/B 4.4 18:41:04 10° SW 18:43:45 18° W 18:46:27 10° NW
OTV 4 2.5 18:45:43 10° WSW 18:48:06 22° SSW 18:49:25 17° SSE
CENTAUR R/B 3.3 18:46:01 10° WSW 18:52:00 49° NW 18:58:27 11° NNE
Resurs 01 Rocket 2.2 18:54:23 35° ENE 18:54:33 35° ENE 18:58:35 10° N
Meteor 1-11 4.1 18:48:58 10° S 18:54:36 75° E 19:00:22 10° NNE
Cosmos 2084 3.2 18:52:39 10° SW 18:56:32 74° NW 18:58:06 33° NNE
Meteor 1-28 Rocket 3.4 18:55:01 10° N 18:58:43 70° WNW 19:02:24 10° SSW
Cosmos 1844 Rocket 4.3 18:53:57 10° NW 18:59:03 36° WSW 19:04:07 10° S
Cosmos 44 Rocket 3.6 18:56:01 10° SW 19:01:07 67° NW 19:04:26 21° NNE
COSMO-SKYMED 1 3.4 18:57:00 10° N 19:01:13 50° WNW 19:05:25 10° SSW
CZ-3A R/B 2.7 18:57:20 10° NW 19:02:16 65° NE 19:04:51 28° ESE
Lacrosse 5 3.7 18:58:57 10° WNW 19:02:38 20° NNW 19:04:47 15° NNE
Aureole 2 Rocket 2.5 19:00:38 10° S 19:04:13 64° ESE 19:04:38 58° ENE
Cosmos 1707 Rocket 3.6 19:00:49 10° N 19:05:04 52° E 19:09:17 10° SSE
FengYun 1-2 T 4.2 19:05:15 10° SSE 19:10:43 60° ENE 19:16:10 10° N
Cosmos 1461 4.2 19:08:08 10° S 19:10:30 25° SSE 19:10:30 25° SSE
Cosmos 2279 Rocket 4.1 19:05:46 10° N 19:11:59 77° W 19:18:11 10° S
SJ-6B 3.0 19:09:32 10° S 19:13:35 77° WSW 19:17:43 10° NNW
Cosmos 1980 3.9 19:09:46 10° SSW 19:15:25 69° WNW 19:19:45 18° NNE
Cosmos 1666 Rocket 4.1 19:12:21 10° S 19:15:24 40° SE 19:15:24 40° SE
Cosmos 1900 4.4 19:12:42 10° NNW 19:17:34 54° NE 19:17:46 54° ENE
Cosmos 2058 3.6 19:17:28 10° SSW 19:21:29 52° W 19:24:55 14° N
FENGYUN 3A 3.5 19:20:01 10° SSE 19:25:21 74° ENE 19:30:44 10° N
Cosmos 304 Rocket 3.6 19:22:44 10° SSW 19:27:33 81° ESE 19:28:09 67° NE
Cosmos 2333 Rocket 3.1 19:22:34 10° SW 19:28:00 47° WNW 19:32:21 16° N
Cosmos 1703 3.4 19:25:31 10° SSW 19:29:16 72° WSW 19:29:16 72° WSW
Nadezhda 4 Rocket 3.8 19:27:28 10° S 19:33:41 78° E 19:40:01 10° N
ATLAS 5 CENTAUR R/B 4.3 19:34:38 10° N 19:36:14 13° N 19:36:14 13° N
Cosmos 2219 Rocket 3.8 19:36:40 10° WSW 19:41:36 30° NW 19:46:00 12° N
Cosmos 1340 Rocket 4.2 19:40:40 10° SW 19:44:20 37° WNW 19:45:23 31° NW
Cosmos 2278 Rocket 3.8 19:40:30 10° NW 19:45:33 34° WSW 19:50:36 10° SSW
Cosmos 1092 Rocket 3.8 19:44:41 10° S 19:50:59 77° E 19:51:46 67° NE
USA 215 4.3 19:45:52 10° SSE 19:52:00 42° SW 19:58:12 10° WNW
Cosmos 1626 4.4 19:51:15 10° SSW 19:52:36 20° SW 19:52:36 20° SW
BREEZE-M DEB (TANK) 4.5 19:50:49 10° W 20:06:15 54° N 20:06:31 54° N
ALOS 3.6 20:05:01 10° SSW 20:09:22 38° W 20:13:45 10° NNW
CZ-4C R/B 4.5 20:07:13 10° NNW 20:09:59 17° N 20:09:59 17° N
Cosmos 2237 Rocket 3.9 20:07:31 10° WSW 20:12:21 29° NW 20:14:53 21° NNW
SL-16 R/B 2.8 20:11:05 10° SW 20:16:19 55° WNW 20:16:19 55° WNW
Cosmos 2369 Rocket 4.5 20:12:18 10° N 20:13:01 13° N 20:13:01 13° N
Lacrosse 5 rocket 4.0 20:18:11 10° WNW 20:19:24 17° W 20:19:24 17° W
Resurs 01 Rocket 3.9 20:31:55 22° WNW 20:31:55 22° WNW 20:34:39 10° NW
